AP893 Weather Reports


time (UTC)temp
C
wind
direction
speed
KPH
gust
KPH
rain 1hr
cm
rain 24hr
cm
rain mn
cm
humidity
%
barometer
mb
20260507040009 14 17 0.0 0.0 0.00 0.00 0.00 88 1021.7
20260507035009 15 17 0.0 0.0 0.00 0.00 0.00 86 1021.6
20260507033011 15 17 0.0 0.0 0.00 0.00 0.00 83 1021.5
20260507031010 16 17 0.0 0.0 0.00 0.00 0.00 77 1021.4
20260507025009 17 17 0.0 0.0 0.00 0.00 0.00 74 1021.3
20260507024010 17 17 0.0 0.0 0.00 0.00 0.00 72 1021.1
20260507022010 18 17 0.0 0.0 0.00 0.00 0.00 69 1021.0
20260507021010 18 10 1.6 11.3 0.00 0.00 0.00 67 1021.0
20260507020009 18 257 0.0 0.0 0.00 0.00 0.00 65 1021.0
20260507015010 19 257 0.0 8.0 0.00 0.00 0.00 64 1021.0
20260507014009 19 352 0.0 9.7 0.00 0.00 0.00 62 1021.1
20260507013010 20 12 1.6 8.0 0.00 0.00 0.00 61 1021.1
20260507012010 20 326 3.2 12.9 0.00 0.00 0.00 61 1021.0
20260507011009 20 340 4.8 11.3 0.00 0.00 0.00 60 1021.1
20260507010010 20 346 0.0 0.0 0.00 0.00 0.00 60 1021.0
20260507005010 20 349 3.2 16.1 0.00 0.00 0.00 59 1020.8
20260507003010 20 339 0.0 0.0 0.00 0.00 0.00 57 1020.7
20260507002010 21 339 1.6 11.3 0.00 0.00 0.00 56 1020.8
20260507001010 21 345 0.0 12.9 0.00 0.00 0.00 56 1020.8
20260507000009 21 282 6.4 14.5 0.00 0.00 0.00 54 1020.7
20260506235010 21 252 1.6 9.7 0.00 0.00 0.00 56 1020.8
20260506233009 22 323 4.8 12.9 0.00 0.00 0.00 52 1020.8
20260506232010 21 336 1.6 9.7 0.00 0.00 0.00 55 1020.8
20260506231010 21 13 3.2 12.9 0.00 0.00 0.00 53 1021.0
20260506230009 21 1 3.2 14.5 0.00 0.00 0.00 54 1021.2
20260506225009 21 112 3.2 11.3 0.00 0.00 0.00 54 1021.2
20260506224010 21 330 6.4 14.5 0.00 0.00 0.00 55 1021.3
20260506223010 21 0 11.3 16.1 0.00 0.00 0.00 52 1021.3
20260506222010 21 0 0.0 11.3 0.00 0.00 0.00 55 1021.4
20260506221010 20 345 8.0 14.5 0.00 0.00 0.00 55 1021.5
20260506220009 21 300 4.8 11.3 0.00 0.00 0.00 55 1021.5
20260506215010 21 280 0.0 14.5 0.00 0.00 0.00 56 1021.6
20260506214009 21 280 1.6 9.7 0.00 0.00 0.00 54 1021.8
20260506213010 21 268 3.2 12.9 0.00 0.00 0.00 53 1021.9
20260506212009 20 283 1.6 12.9 0.00 0.00 0.00 56 1021.9
20260506211010 20 41 0.0 16.1 0.00 0.00 0.00 59 1021.9
20260506205009 20 357 4.8 14.5 0.00 0.00 0.00 59 1022.1
20260506204010 20 334 9.7 14.5 0.00 0.00 0.00 58 1022.1
20260506203009 19 322 4.8 14.5 0.00 0.00 0.00 59 1022.1
20260506202009 19 315 4.8 19.3 0.00 0.00 0.00 61 1022.1
20260506200010 18 224 0.0 16.1 0.00 0.00 0.00 61 1022.3
20260506195010 18 302 3.2 12.9 0.00 0.00 0.00 61 1022.3
20260506194009 19 342 1.6 16.1 0.00 0.00 0.00 60 1022.3
20260506193009 19 136 3.2 11.3 0.00 0.00 0.00 60 1022.4
20260506192013 19 309 0.0 11.3 0.00 0.00 0.00 60 1022.5
20260506191009 18 314 4.8 12.9 0.00 0.00 0.00 61 1022.5
20260506190010 18 175 4.8 12.9 0.00 0.00 0.00 65 1022.6
20260506185009 18 322 8.0 12.9 0.00 0.00 0.00 64 1022.5
20260506183010 16 280 4.8 11.3 0.00 0.00 0.00 70 1022.5
20260506182010 16 20 3.2 16.1 0.00 0.00 0.00 69 1022.6
20260506181010 17 20 4.8 12.9 0.00 0.00 0.00 64 1022.5
20260506180009 17 291 3.2 12.9 0.00 0.00 0.00 67 1022.4
20260506175009 17 165 1.6 11.3 0.00 0.00 0.00 67 1022.3
20260506174010 16 343 9.7 16.1 0.00 0.00 0.00 67 1022.3
20260506173010 16 345 4.8 12.9 0.00 0.00 0.00 68 1022.3
20260506172009 16 351 3.2 12.9 0.00 0.00 0.00 70 1022.3
20260506170010 16 350 8.0 14.5 0.00 0.00 0.00 69 1022.2
20260506164009 15 48 0.0 3.2 0.00 0.00 0.00 69 1022.1
20260506163009 15 150 0.0 1.6 0.00 0.00 0.00 70 1022.1
20260506161009 14 150 0.0 0.0 0.00 0.00 0.00 74 1021.9
20260506160009 14 150 0.0 4.8 0.00 0.00 0.00 77 1021.9
20260506152010 12 144 3.2 8.0 0.00 0.03 0.00 100 1022.1
20260506151009 11 223 0.0 8.0 0.00 0.03 0.00 100 1022.1
20260506150009 11 199 0.0 0.0 0.00 0.03 0.00 100 1022.1
20260506145010 10 199 0.0 0.0 0.00 0.03 0.00 100 1022.1
20260506143011 9 199 0.0 0.0 0.00 0.03 0.00 100 1021.8
20260506141009 8 199 0.0 0.0 0.00 0.03 0.00 100 1021.6
20260506135010 8 199 0.0 0.0 0.00 0.03 0.00 100 1021.3
20260506134010 8 199 0.0 0.0 0.00 0.03 0.00 100 1021.2
20260506133010 8 199 0.0 0.0 0.00 0.03 0.00 100 1021.1
20260506130009 8 199 0.0 0.0 0.00 0.03 0.00 100 1021.1
20260506124010 9 199 0.0 0.0 0.00 0.03 0.00 100 1020.8
20260506123010 9 199 0.0 0.0 0.00 0.03 0.00 100 1020.7
20260506121009 10 199 0.0 0.0 0.00 0.03 0.00 100 1020.6
20260506115010 10 199 0.0 0.0 0.00 0.03 0.00 100 1020.6
20260506113011 10 199 0.0 0.0 0.00 0.03 0.00 100 1020.6
20260506112010 10 199 0.0 0.0 0.00 0.03 0.00 100 1020.6
20260506111009 10 199 0.0 0.0 0.00 0.03 0.00 100 1020.6
20260506110009 10 199 0.0 0.0 0.00 0.03 0.00 100 1020.5
20260506105009 10 199 0.0 0.0 0.00 0.03 0.00 100 1020.6
20260506104010 10 199 0.0 0.0 0.00 0.03 0.00 100 1020.6
20260506103010 10 199 0.0 0.0 0.00 0.03 0.00 100 1020.6
20260506102009 10 199 0.0 0.0 0.00 0.03 0.00 100 1020.5
20260506101010 10 199 0.0 0.0 0.00 0.03 0.00 100 1020.4
20260506100010 10 199 0.0 0.0 0.00 0.05 0.00 100 1020.4
20260506095010 10 199 0.0 0.0 0.00 0.05 0.00 100 1020.4
20260506094009 10 199 0.0 0.0 0.00 0.05 0.00 100 1020.3
20260506093009 9 199 0.0 0.0 0.00 0.05 0.00 100 1020.3
20260506092009 9 199 0.0 0.0 0.00 0.08 0.00 100 1020.3
20260506091011 9 199 0.0 0.0 0.00 0.08 0.00 100 1020.2
20260506090010 9 199 0.0 0.0 0.00 0.08 0.00 100 1020.2
20260506085009 9 199 0.0 0.0 0.00 0.08 0.00 100 1020.0
20260506084009 10 199 0.0 0.0 0.00 0.08 0.00 100 1019.6
20260506083009 10 199 0.0 0.0 0.00 0.08 0.00 100 1019.7
20260506082010 10 199 0.0 0.0 0.00 0.10 0.00 100 1019.7
20260506072009 10 7 0.0 0.0 0.00 0.18 0.00 100 1020.5
20260506071009 10 7 0.0 0.0 0.00 0.18 0.00 100 1020.2
20260506061009 10 7 0.0 0.0 0.00 0.20 0.18 100 1019.4
20260506051009 11 7 0.0 0.0 0.00 0.20 0.18 100 1019.1
20260506045009 11 7 0.0 0.0 0.00 0.20 0.18 100 1018.9
20260506044009 11 7 0.0 0.0 0.00 0.20 0.18 100 1018.9
20260506043010 11 7 0.0 0.0 0.00 0.20 0.18 99 1018.9
20260506042010 11 7 0.0 0.0 0.00 0.20 0.18 98 1018.8
20260506041010 11 7 0.0 0.0 0.00 0.20 0.18 97 1018.6